BAW501 LPPT-EGLL

Flight info

Callsign BAW501
Flight time N/A
Altitude 36000
Route IXIDA DCT RIVRO DCT TOSDI DCT ZMR DCT NUBLO DCT RONSI DCT DELOG DCT DEGEX DCT OZNOH DCT JSY DCT REVTU/N0454F340 UP87 ROXOG
Aircraft A21N/M-SDE2E3FGHIJ1RWXY/LB1

Departure

Time 2026-04-28 13:15
Airport Lisbon Humberto Delgado Airport (LPPT)

Arrival

Time N/A
Airport London Heathrow Airport (EGLL)
Time Latitude Longitude Altitude Speed Heading
2026-04-28 12:56 38.76528 -9.13389 354 ft 0 kts 73°
2026-04-28 13:05 38.76526 -9.13397 355 ft 4 kts 70°
2026-04-28 13:05 38.76513 -9.13424 359 ft 4 kts 35°
2026-04-28 13:06 38.76490 -9.13434 352 ft 4 kts 349°
2026-04-28 13:06 38.76485 -9.13432 359 ft 0 kts 344°
2026-04-28 13:10 38.76489 -9.13434 352 ft 2 kts 344°
2026-04-28 13:10 38.76504 -9.13440 360 ft 3 kts 343°
2026-04-28 13:10 38.76537 -9.13452 359 ft 6 kts 343°
2026-04-28 13:10 38.76586 -9.13470 355 ft 8 kts 344°
2026-04-28 13:11 38.76641 -9.13506 355 ft 10 kts 293°
2026-04-28 13:11 38.76635 -9.13600 351 ft 12 kts 259°
2026-04-28 13:11 38.76618 -9.13709 354 ft 13 kts 258°
2026-04-28 13:11 38.76597 -9.13833 355 ft 15 kts 258°
2026-04-28 13:12 38.76577 -9.13957 353 ft 12 kts 257°
2026-04-28 13:12 38.76531 -9.14051 360 ft 12 kts 228°
2026-04-28 13:12 38.76497 -9.14125 358 ft 10 kts 258°
2026-04-28 13:12 38.76508 -9.14215 349 ft 11 kts 292°
2026-04-28 13:13 38.76531 -9.14286 351 ft 6 kts 292°
2026-04-28 13:13 38.76534 -9.14294 348 ft 0 kts 290°
2026-04-28 13:13 38.76536 -9.14301 346 ft 2 kts 290°
2026-04-28 13:13 38.76545 -9.14330 350 ft 5 kts 293°
2026-04-28 13:14 38.76561 -9.14379 337 ft 7 kts 291°
2026-04-28 13:14 38.76600 -9.14411 341 ft 9 kts 18°
2026-04-28 13:14 38.76715 -9.14350 347 ft 43 kts 22°
2026-04-28 13:14 38.77213 -9.14087 366 ft 109 kts 22°
2026-04-28 13:15 38.78089 -9.13619 371 ft 161 kts 22°
2026-04-28 13:15 38.79212 -9.13023 648 ft 177 kts 24°
2026-04-28 13:15 38.80302 -9.12357 1322 ft 175 kts 32°
2026-04-28 13:15 38.81311 -9.11445 1864 ft 183 kts 34°
2026-04-28 13:16 38.82467 -9.10569 2305 ft 203 kts 28°
2026-04-28 13:16 38.83750 -9.09673 2893 ft 216 kts 29°
2026-04-28 13:16 38.85077 -9.08626 3426 ft 235 kts 38°
2026-04-28 13:16 38.86336 -9.07131 3889 ft 256 kts 46°
2026-04-28 13:17 38.87617 -9.05436 4474 ft 271 kts 46°
2026-04-28 13:17 38.88944 -9.03714 5341 ft 271 kts 45°
2026-04-28 13:17 38.90275 -9.02030 6200 ft 273 kts 44°
2026-04-28 13:17 38.91649 -9.00320 6972 ft 277 kts 44°
2026-04-28 13:18 38.93061 -8.98562 7755 ft 282 kts 44°
2026-04-28 13:18 38.94461 -8.96815 8540 ft 286 kts 45°
2026-04-28 13:18 38.95898 -8.95018 9339 ft 290 kts 45°
2026-04-28 13:18 38.97360 -8.93187 10067 ft 297 kts 45°
2026-04-28 13:19 38.98887 -8.91272 10435 ft 317 kts 45°
2026-04-28 13:19 39.00523 -8.89217 10737 ft 338 kts 45°
2026-04-28 13:19 39.02254 -8.87041 11038 ft 357 kts 45°
2026-04-28 13:19 39.04056 -8.84777 11613 ft 365 kts 45°
2026-04-28 13:20 39.05883 -8.82478 12332 ft 370 kts 45°
2026-04-28 13:20 39.07735 -8.80150 13052 ft 374 kts 45°
2026-04-28 13:20 39.09602 -8.77801 13738 ft 378 kts 45°
2026-04-28 13:20 39.11488 -8.75422 14354 ft 382 kts 45°
2026-04-28 13:21 39.13396 -8.73015 14975 ft 386 kts 45°
2026-04-28 13:21 39.15326 -8.70573 15581 ft 389 kts 45°
2026-04-28 13:21 39.17263 -8.68116 16184 ft 393 kts 46°
2026-04-28 13:21 39.19221 -8.65617 16783 ft 396 kts 45°
2026-04-28 13:22 39.21173 -8.63148 17365 ft 400 kts 45°
2026-04-28 13:22 39.23164 -8.60624 17934 ft 403 kts 46°
2026-04-28 13:22 39.25195 -8.58033 18471 ft 407 kts 46°
2026-04-28 13:22 39.27196 -8.55503 18936 ft 410 kts 45°
2026-04-28 13:23 39.29241 -8.52920 19423 ft 413 kts 45°
2026-04-28 13:23 39.31301 -8.50312 19895 ft 416 kts 46°
2026-04-28 13:23 39.33374 -8.47683 20359 ft 419 kts 46°
2026-04-28 13:23 39.35467 -8.45022 20812 ft 422 kts 46°
2026-04-28 13:24 39.37565 -8.42346 21241 ft 426 kts 46°
2026-04-28 13:24 39.39685 -8.39639 21657 ft 429 kts 46°
2026-04-28 13:24 39.41814 -8.36916 22072 ft 432 kts 46°
2026-04-28 13:24 39.43957 -8.34175 22462 ft 435 kts 46°
2026-04-28 13:25 39.46119 -8.31409 22830 ft 438 kts 46°
2026-04-28 13:25 39.48270 -8.28659 23170 ft 441 kts 46°
2026-04-28 13:25 39.50461 -8.25844 23462 ft 444 kts 46°
2026-04-28 13:25 39.52661 -8.23021 23712 ft 446 kts 46°
2026-04-28 13:26 39.54873 -8.20174 24015 ft 448 kts 46°
2026-04-28 13:26 39.57091 -8.17324 24319 ft 450 kts 46°
2026-04-28 13:26 39.59323 -8.14458 24620 ft 452 kts 46°
2026-04-28 13:26 39.61566 -8.11575 24898 ft 454 kts 46°
2026-04-28 13:27 39.63812 -8.08684 25146 ft 456 kts 46°
2026-04-28 13:27 39.66077 -8.05762 25387 ft 458 kts 46°
2026-04-28 13:27 39.68342 -8.02837 25631 ft 460 kts 46°
2026-04-28 13:27 39.70585 -7.99936 25860 ft 462 kts 46°
2026-04-28 13:28 39.72862 -7.96987 26081 ft 463 kts 46°
2026-04-28 13:28 39.75153 -7.94017 26303 ft 465 kts 46°
2026-04-28 13:28 39.77446 -7.91042 26515 ft 467 kts 46°
2026-04-28 13:28 39.79751 -7.88046 26741 ft 469 kts 46°
2026-04-28 13:29 39.82058 -7.85025 26945 ft 470 kts 46°
2026-04-28 13:29 39.84365 -7.81994 27147 ft 472 kts 46°
2026-04-28 13:29 39.86685 -7.78952 27360 ft 474 kts 46°
2026-04-28 13:29 39.89013 -7.75917 27556 ft 475 kts 46°
2026-04-28 13:30 39.91366 -7.72867 27765 ft 476 kts 46°
2026-04-28 13:30 39.93681 -7.69853 27936 ft 478 kts 46°
2026-04-28 13:30 39.96042 -7.66770 28117 ft 480 kts 46°
2026-04-28 13:30 39.98410 -7.63686 28292 ft 481 kts 46°
2026-04-28 13:31 40.03155 -7.57487 28655 ft 484 kts 46°
2026-04-28 13:31 40.05534 -7.54365 28842 ft 485 kts 46°
2026-04-28 13:31 40.07915 -7.51237 29005 ft 486 kts 46°
2026-04-28 13:32 40.10304 -7.48091 29205 ft 486 kts 46°
2026-04-28 13:32 40.12654 -7.44995 29422 ft 486 kts 46°
2026-04-28 13:32 40.15033 -7.41858 29639 ft 485 kts 46°
2026-04-28 13:32 40.17411 -7.38725 29834 ft 485 kts 46°
2026-04-28 13:33 40.19798 -7.35578 30009 ft 486 kts 46°
2026-04-28 13:33 40.22173 -7.32438 30193 ft 485 kts 46°
2026-04-28 13:33 40.24551 -7.29295 30378 ft 485 kts 46°
2026-04-28 13:33 40.26920 -7.26157 30557 ft 484 kts 46°
2026-04-28 13:34 40.29280 -7.23021 30746 ft 484 kts 46°
2026-04-28 13:34 40.31641 -7.19884 30913 ft 483 kts 46°
2026-04-28 13:34 40.33994 -7.16755 31120 ft 482 kts 46°
2026-04-28 13:34 40.36347 -7.13622 31290 ft 482 kts 46°
2026-04-28 13:35 40.38693 -7.10495 31454 ft 481 kts 46°
2026-04-28 13:35 40.41045 -7.07355 31637 ft 481 kts 46°
2026-04-28 13:35 40.43384 -7.04227 31798 ft 480 kts 46°
2026-04-28 13:35 40.45721 -7.01098 31964 ft 480 kts 46°
2026-04-28 13:36 40.48056 -6.97975 32129 ft 479 kts 46°
2026-04-28 13:36 40.50393 -6.94848 32280 ft 479 kts 46°
2026-04-28 13:36 40.52730 -6.91718 32435 ft 478 kts 46°
2026-04-28 13:36 40.55029 -6.88639 32584 ft 478 kts 46°
2026-04-28 13:37 40.57352 -6.85516 32731 ft 478 kts 46°
2026-04-28 13:37 40.59682 -6.82382 32858 ft 478 kts 46°
2026-04-28 13:37 40.62008 -6.79250 32976 ft 478 kts 46°
2026-04-28 13:37 40.64330 -6.76114 33102 ft 478 kts 46°
2026-04-28 13:38 40.66649 -6.72989 33232 ft 477 kts 46°
2026-04-28 13:38 40.68972 -6.69848 33361 ft 477 kts 46°
2026-04-28 13:38 40.71286 -6.66717 33479 ft 477 kts 46°
2026-04-28 13:38 40.73600 -6.63588 33609 ft 476 kts 46°
2026-04-28 13:39 40.75903 -6.60473 33904 ft 471 kts 46°
2026-04-28 13:39 40.78141 -6.57438 34159 ft 466 kts 46°
2026-04-28 13:39 40.80397 -6.54369 34311 ft 464 kts 46°
2026-04-28 13:39 40.82644 -6.51311 34453 ft 462 kts 46°
2026-04-28 13:40 40.84876 -6.48280 34684 ft 457 kts 46°
2026-04-28 13:40 40.87079 -6.45274 34902 ft 453 kts 46°
2026-04-28 13:40 40.89270 -6.42288 35059 ft 451 kts 46°
2026-04-28 13:40 40.91452 -6.39310 35141 ft 450 kts 46°
2026-04-28 13:41 40.95796 -6.33371 35250 ft 449 kts 46°
2026-04-28 13:41 41.00193 -6.27544 35320 ft 442 kts 42°
2026-04-28 13:42 41.04728 -6.22133 35514 ft 436 kts 42°
2026-04-28 13:42 41.06971 -6.19462 35670 ft 432 kts 42°
2026-04-28 13:42 41.09199 -6.16808 35827 ft 428 kts 42°
2026-04-28 13:43 41.11399 -6.14183 35941 ft 424 kts 42°
2026-04-28 13:43 41.13593 -6.11559 35945 ft 424 kts 42°
2026-04-28 13:43 41.17952 -6.06346 35913 ft 424 kts 42°
2026-04-28 13:44 41.22331 -6.01095 35913 ft 423 kts 42°
2026-04-28 13:44 41.26697 -5.95844 35898 ft 423 kts 42°
2026-04-28 13:45 41.34789 -5.86078 35903 ft 421 kts 42°
2026-04-28 13:45 41.42812 -5.76371 35909 ft 422 kts 42°
2026-04-28 13:46 41.47161 -5.71105 35924 ft 428 kts 42°
2026-04-28 13:46 41.51625 -5.65748 35903 ft 434 kts 38°
2026-04-28 13:47 41.54109 -5.63456 35917 ft 436 kts 27°
2026-04-28 13:47 41.55949 -5.62237 35924 ft 437 kts 22°
2026-04-28 13:47 41.67771 -5.55687 35951 ft 452 kts 21°
2026-04-28 13:47 41.79571 -5.48986 35939 ft 466 kts 21°
2026-04-28 13:48 42.03303 -5.35483 35931 ft 465 kts 21°
2026-04-28 13:48 42.23265 -5.24036 35946 ft 465 kts 21°
2026-04-28 13:49 42.46884 -5.10384 35956 ft 465 kts 21°
2026-04-28 13:49 42.70638 -4.96546 35974 ft 464 kts 21°
2026-04-28 13:50 42.94400 -4.82578 35996 ft 467 kts 21°
2026-04-28 13:50 43.18249 -4.68432 36021 ft 470 kts 21°
2026-04-28 13:51 43.42298 -4.54057 36020 ft 471 kts 21°
2026-04-28 13:51 43.66371 -4.39550 36018 ft 473 kts 21°
2026-04-28 13:52 43.90451 -4.24894 36017 ft 473 kts 21°
2026-04-28 13:52 44.14408 -4.10195 36016 ft 473 kts 21°